Location: Lafig�re
(44.4503°N, 4.0357°E)
Time: 16:50:14
(UTC+00:00)

deb Explorer IX - Pass Details

Date: 25 January 2021
Orbit: 537 x 1102 km, 38.8° (Epoch: 04 March)

Event Time Altitude Azimuth Distance (km) Brightness Sun altitude
Rises 15:55:06 0° 216° (SW) 3,836 ? 6.6°
Reaches altitude 10° 15:58:28 10° 203° (SSW) 2,822 ? 6.1°
Maximum altitude 16:03:42 24° 153° (SSE) 1,892 ? 5.3°
Drops below altitude 10° 16:08:28 10° 102° (ESE) 2,552 ? 4.6°
Sets 16:11:20 0° 89° (E) 3,391 ? 4.2°
